Jackson, TN

6:53 PM CST on December 07, 2016 (GMT -0600)
McKellar-Sipes Regional

Weather History for KMKL - September, 2012

Change the Weather History Date:

Thursday, September 27, 2012

  Actual Average Record
Temperature  
Mean Temperature 74 °F 67 °F  
Max Temperature 85 °F 80 °F 95 °F (1954)
Min Temperature 62 °F 54 °F 39 °F (2000)
Degree Days  
Heating Degree Days 0 2  
Month to date heating degree days 26 17  
Since 1 July heating degree days 26 17  
Cooling Degree Days 9 4  
Month to date cooling degree days 199 209  
Year to date cooling degree days 1888 1632  
Growing Degree Days 23 (Base 50)    
Moisture  
Dew Point 64 °F    
Average Humidity 72    
Maximum Humidity 93    
Minimum Humidity 51    
Precipitation  
Precipitation T in 0.14 in 1.72 in (1996)
Month to date precipitation 5.58 2.98  
Year to date precipitation 30.73 38.85  
Snow  
Snow 0.00 in 0.00 in 0.00 in (2002)
Month to date snowfall 0.0 0.0  
Since 1 July snowfall 0.0 0.0  
Since 1 September snowfall 0.0 0.0  
Snow Depth 0.00 in    
Sea Level Pressure  
Sea Level Pressure 30.10 in    
Wind  
Wind Speed 2 mph (SSW)    
Max Wind Speed 10 mph    
Max Gust Speed 14 mph    
Visibility 10 miles    
Events      
T = Trace of Precipitation, MM = Missing Value Source: NWS Daily Summary

Daily Weather History Graph

Daily Weather History Graph

Search for Another Location

Airport or City:

Trip Planner

Search our weather history database for the weather conditions in past years. The results will help you decide how hot, cold, wet, or windy it might be!

Date:

Astronomy

Sep. 27, 2012 Rise Set
Actual Time 6:47 AM CDT 6:44 PM CDT
Civil Twilight 6:22 AM CDT 7:09 PM CDT
Nautical Twilight 5:52 AM CDT 7:39 PM CDT
Astronomical Twilight 5:22 AM CDT 8:09 PM CDT
Moon 5:13 PM CDT (9/27) 4:20 AM CDT (9/27)
Length of Visible Light 12h 47m
Length of Day
11h 56m
Waxing Gibbous, 94% of the Moon is Illuminated
Sep 27
Waxing Gibbous
Sep 29
Full
Oct 8
Last Quarter
Oct 15
New
Oct 21
First Quarter

Hourly Weather History & Observations

Time (CDT) Temp. Heat Index Dew Point Humidity Pressure Visibility Wind Dir Wind Speed Gust Speed Precip Events Conditions
12:53 AM 66.9 °F - 62.1 °F 84% 30.09 in 10.0 mi South 3.5 mph - N/A   Clear
1:53 AM 64.0 °F - 61.0 °F 90% 30.09 in 10.0 mi Calm Calm - N/A   Clear
2:53 AM 66.0 °F - 61.0 °F 84% 30.08 in 10.0 mi South 4.6 mph - N/A   Clear
3:53 AM 66.9 °F - 61.0 °F 81% 30.09 in 10.0 mi SSW 5.8 mph - N/A   Clear
4:53 AM 64.9 °F - 61.0 °F 87% 30.12 in 10.0 mi Calm Calm - N/A   Mostly Cloudy
5:53 AM 63.0 °F - 61.0 °F 93% 30.12 in 10.0 mi Calm Calm - N/A   Scattered Clouds
6:53 AM 62.6 °F - 60.8 °F 94% 30.15 in 10.0 mi Calm Calm - N/A   Mostly Cloudy
7:53 AM 66.9 °F - 63.0 °F 87% 30.15 in 10.0 mi Calm Calm - N/A   Scattered Clouds
8:53 AM 71.1 °F - 63.0 °F 75% 30.15 in 10.0 mi Calm Calm - N/A   Partly Cloudy
9:53 AM 75.9 °F - 64.0 °F 67% 30.16 in 10.0 mi SW 5.8 mph - N/A   Clear
10:53 AM 80.1 °F 81.9 °F 64.9 °F 60% 30.16 in 10.0 mi Variable 3.5 mph - N/A   Mostly Cloudy
11:53 AM 80.1 °F 81.9 °F 64.9 °F 60% 30.14 in 10.0 mi West 6.9 mph - N/A   Partly Cloudy
1:53 PM 82.0 °F 84.1 °F 66.0 °F 58% 30.10 in 10.0 mi Calm Calm - 0.00 in   Clear
2:53 PM 84.0 °F 86.3 °F 66.0 °F 55% 30.07 in 10.0 mi SSE 8.1 mph - N/A   Partly Cloudy
3:53 PM 84.9 °F 86.6 °F 64.9 °F 51% 30.05 in 10.0 mi SSW 6.9 mph - N/A   Clear
4:53 PM 84.0 °F 85.4 °F 64.0 °F 51% 30.04 in 10.0 mi South 5.8 mph - N/A   Partly Cloudy
5:53 PM 80.1 °F 81.9 °F 64.9 °F 60% 30.04 in 10.0 mi SSE 3.5 mph - N/A   Clear
6:53 PM 73.9 °F - 66.0 °F 76% 30.06 in 10.0 mi Calm Calm - N/A   Clear
7:53 PM 72.0 °F - 66.9 °F 84% 30.08 in 10.0 mi Calm Calm - N/A   Clear
8:53 PM 73.9 °F - 66.0 °F 76% 30.08 in 10.0 mi Calm Calm - N/A   Clear
9:53 PM 72.0 °F - 66.9 °F 84% 30.09 in 10.0 mi Calm Calm - N/A   Clear
10:53 PM 70.0 °F - 66.9 °F 90% 30.09 in 10.0 mi Calm Calm - N/A   Clear
11:53 PM 70.0 °F - 66.9 °F 90% 30.09 in 10.0 mi NW 5.8 mph - N/A   Clear